Simultaneous Nadir Overpasses (SNOs) Predictions

Prediction of SNOs between GOES-16 and TERRA Satellite Orbit:

Table of predicted SNOs for the next 14.0 days since TLE Epoch: 3/4/2017
Index Date Time (GOES-16) GOES-16 Lat,Lon TERRA Lat,Lon Distance(km) Time Diff (sec)
1 03/05/2017 16:28:21 0.00, -89.52 -0.05, -89.21 35.57 80
2 03/07/2017 16:16:11 -0.00, -89.55 -0.68, -86.25 374.15 80
3 03/08/2017 04:37:34 -0.00, -89.53 -0.43, -91.44 218.39 80
4 03/10/2017 04:22:43 -0.00, -89.55 0.21, -88.49 120.99 80
5 03/10/2017 16:43:59 0.00, -89.59 0.86, -93.65 461.70 80
6 03/12/2017 04:10:32 0.00, -89.59 0.86, -85.53 461.04 80
7 03/12/2017 16:31:48 0.00, -89.62 0.21, -90.69 121.42 80
8 03/14/2017 16:22:16 -0.00, -89.66 -0.40, -87.73 219.49 80
9 03/15/2017 04:43:40 0.00, -89.65 -0.71, -92.92 371.94 80
10 03/17/2017 04:31:29 0.00, -89.69 -0.03, -89.97 30.80 80




NCC Satellite Simultaneous Nadir Overpasses (SNOs) Prediction Service
